TimePDT,TemperatureF,Dew PointF,Humidity,Sea Level PressureIn,VisibilityMPH,Wind Direction,Wind SpeedMPH,Gust SpeedMPH,PrecipitationIn,Events,Conditions,WindDirDegrees,DateUTC
12:53 AM,46.0,34.0,63,30.01,10.0,West,8.1,-,N/A,,Overcast,280,2013-03-28 07:53:00
1:53 AM,46.0,33.1,61,30.01,10.0,WNW,5.8,-,N/A,,Overcast,300,2013-03-28 08:53:00
2:53 AM,45.0,32.0,60,30.02,10.0,West,5.8,-,N/A,,Overcast,280,2013-03-28 09:53:00
3:53 AM,43.0,33.1,68,30.02,10.0,WNW,5.8,-,N/A,,Mostly Cloudy,300,2013-03-28 10:53:00
4:53 AM,41.0,32.0,70,30.03,10.0,WNW,6.9,-,N/A,,Clear,300,2013-03-28 11:53:00
5:53 AM,35.1,30.0,82,30.05,10.0,WNW,4.6,-,N/A,,Clear,300,2013-03-28 12:53:00
6:53 AM,35.1,30.0,82,30.06,10.0,Calm,Calm,-,N/A,,Clear,0,2013-03-28 13:53:00
7:53 AM,42.1,33.1,70,30.08,10.0,Calm,Calm,-,N/A,,Clear,0,2013-03-28 14:53:00
8:53 AM,45.0,35.1,68,30.08,10.0,Calm,Calm,-,N/A,,Clear,0,2013-03-28 15:53:00
9:53 AM,48.9,36.0,61,30.08,10.0,Calm,Calm,-,N/A,,Scattered Clouds,0,2013-03-28 16:53:00
10:53 AM,52.0,36.0,54,30.08,10.0,Calm,Calm,-,N/A,,Clear,0,2013-03-28 17:53:00
11:53 AM,57.0,37.0,47,30.07,10.0,Variable,3.5,-,N/A,,Partly Cloudy,0,2013-03-28 18:53:00
12:53 PM,57.9,36.0,44,30.05,10.0,Variable,4.6,-,N/A,,Clear,0,2013-03-28 19:53:00
1:53 PM,61.0,37.9,42,30.04,10.0,SSW,6.9,-,N/A,,Scattered Clouds,210,2013-03-28 20:53:00
2:53 PM,62.1,37.0,39,30.02,10.0,SSW,8.1,-,N/A,,Scattered Clouds,200,2013-03-28 21:53:00
3:53 PM,62.1,36.0,38,30.01,10.0,SSW,8.1,-,N/A,,Partly Cloudy,210,2013-03-28 22:53:00
4:53 PM,63.0,33.1,33,30.01,10.0,SSW,4.6,-,N/A,,Clear,210,2013-03-28 23:53:00
5:53 PM,60.1,35.1,39,30.02,10.0,NW,9.2,-,N/A,,Clear,310,2013-03-29 00:53:00
6:53 PM,55.0,35.1,47,30.03,10.0,NNW,4.6,-,N/A,,Clear,330,2013-03-29 01:53:00
7:53 PM,48.9,34.0,56,30.04,10.0,WNW,6.9,-,N/A,,Scattered Clouds,300,2013-03-29 02:53:00
8:53 PM,50.0,35.1,57,30.06,10.0,WNW,9.2,-,N/A,,Clear,300,2013-03-29 03:53:00
9:53 PM,46.0,34.0,63,30.07,10.0,NW,3.5,-,N/A,,Clear,320,2013-03-29 04:53:00
10:53 PM,46.0,33.1,61,30.09,10.0,West,4.6,-,N/A,,Clear,280,2013-03-29 05:53:00
11:53 PM,39.9,33.1,77,30.10,10.0,Calm,Calm,-,N/A,,Clear,0,2013-03-29 06:53:00